Broken Bow, NE

11:08 AM CDT on March 24, 2017 (GMT -0500)
Broken Bow Municipal

Weather History for KBBW - April, 2013

Change the Weather History Date:

Sunday, April 21, 2013

  Actual Average Record
Temperature  
Mean Temperature 47 °F 50 °F  
Max Temperature 66 °F 63 °F 90 °F (1980)
Min Temperature 28 °F 36 °F 19 °F (1978)
Degree Days  
Heating Degree Days 18 15  
Month to date heating degree days 539 395  
Cooling Degree Days 0 0  
Month to date cooling degree days 0 0  
Year to date cooling degree days 0 0  
Moisture  
Dew Point 35 °F    
Average Humidity 64    
Maximum Humidity 93    
Minimum Humidity 34    
Precipitation  
Precipitation 0.07 in 0.09 in 1.73 in (1933)
Sea Level Pressure  
Sea Level Pressure 30.04 in    
Wind  
Wind Speed 8 mph (ENE)    
Max Wind Speed 25 mph    
Max Gust Speed 31 mph    
Visibility 10 miles    
Events Rain    
T = Trace of Precipitation, MM = Missing Value Source: NWS Daily Summary

Daily Weather History Graph

Daily Weather History Graph

Search for Another Location

Airport or City:

Trip Planner

Search our weather history database for the weather conditions in past years. The results will help you decide how hot, cold, wet, or windy it might be!

Date:

Astronomy

Apr. 21, 2013 Rise Set
Actual Time 6:49 AM CDT 8:25 PM CDT
Civil Twilight 6:20 AM CDT 8:55 PM CDT
Nautical Twilight 5:44 AM CDT 9:30 PM CDT
Astronomical Twilight 5:07 AM CDT 10:08 PM CDT
Moon 4:10 PM CDT (4/21) 4:15 AM CDT (4/21)
Length of Visible Light 14h 34m
Length of Day
13h 36m
Waxing Gibbous, 80% of the Moon is Illuminated
Apr 21
Waxing Gibbous
Apr 25
Full
May 2
Last Quarter
May 9
New
May 17
First Quarter

Hourly Weather History & Observations

Time (CDT) Temp. Windchill Dew Point Humidity Pressure Visibility Wind Dir Wind Speed Gust Speed Precip Events Conditions
12:53 AM 33.1 °F 27.7 °F 28.0 °F 82% 30.07 in 10.0 mi SE 5.8 mph - N/A   Clear
1:53 AM 32.0 °F - 28.0 °F 85% 30.07 in 10.0 mi Calm Calm - N/A   Clear
2:53 AM 30.9 °F 26.2 °F 27.0 °F 85% 30.05 in 10.0 mi SE 4.6 mph - N/A   Partly Cloudy
3:53 AM 30.9 °F - 28.0 °F 89% 30.03 in 10.0 mi Calm Calm - N/A   Clear
4:53 AM 28.9 °F - 27.0 °F 92% 30.03 in 10.0 mi Calm Calm - N/A   Clear
5:53 AM 32.0 °F 28.7 °F 28.9 °F 88% 30.04 in 10.0 mi West 3.5 mph - N/A   Partly Cloudy
6:53 AM 28.9 °F 21.9 °F 27.0 °F 92% 30.04 in 8.0 mi SSE 6.9 mph - N/A   Clear
7:53 AM 32.0 °F 28.7 °F 30.0 °F 92% 30.03 in 8.0 mi SE 3.5 mph - N/A   Scattered Clouds
8:53 AM 36.0 °F 33.3 °F 33.1 °F 89% 30.04 in 8.0 mi SE 3.5 mph - 0.00 in   Overcast
9:53 AM 42.1 °F 40.2 °F 37.0 °F 82% 30.03 in 10.0 mi SSE 3.5 mph - 0.00 in   Partly Cloudy
10:53 AM 50.0 °F - 39.0 °F 66% 30.03 in 10.0 mi South 8.1 mph - N/A   Clear
11:53 AM 54.0 °F - 39.0 °F 57% 30.03 in 10.0 mi Calm Calm - N/A   Clear
12:53 PM 57.9 °F - 39.9 °F 51% 30.02 in 10.0 mi SW 8.1 mph - N/A   Clear
1:53 PM 61.0 °F - 39.0 °F 44% 30.00 in 10.0 mi North 9.2 mph - N/A   Mostly Cloudy
2:53 PM 64.0 °F - 39.0 °F 40% 29.99 in 10.0 mi NE 10.4 mph - N/A   Scattered Clouds
3:53 PM 64.0 °F - 36.0 °F 35% 29.99 in 10.0 mi North 9.2 mph - N/A   Overcast
4:53 PM 63.0 °F - 35.1 °F 35% 29.99 in 10.0 mi NE 8.1 mph - 0.00 in   Partly Cloudy
5:53 PM 62.1 °F - 35.1 °F 37% 29.99 in 10.0 mi NE 6.9 mph - N/A   Clear
6:53 PM 54.0 °F - 42.1 °F 64% 30.05 in 4.0 mi NNW 11.5 mph 17.3 mph 0.02 in Rain Light Rain
7:53 PM 51.1 °F - 44.1 °F 77% 30.07 in 10.0 mi NNE 13.8 mph - 0.00 in   Scattered Clouds
8:53 PM 48.9 °F - 43.0 °F 80% 30.12 in 10.0 mi North 11.5 mph - N/A   Overcast
9:53 PM 46.0 °F 38.0 °F 44.1 °F 93% 30.10 in 10.0 mi NE 21.9 mph - 0.05 in   Partly Cloudy
10:53 PM 43.0 °F 34.5 °F 39.0 °F 86% 30.12 in 10.0 mi NE 19.6 mph 26.5 mph N/A   Clear
11:53 PM 39.9 °F 32.5 °F 37.9 °F 93% 30.10 in 10.0 mi East 12.7 mph - N/A   Partly Cloudy